Location: Lane
(33.5226°N, 79.8788°W)
Time: 07:35:37
(UTC+00:00)

Explorer 7 - Pass Details

Date: 12 October 2022
Orbit: 481 x 665 km, 50.3° (Epoch: 28 November)

Event Time Altitude Azimuth Distance (km) Brightness Sun altitude
Rises 09:55:12 0° 177° (S) 2,847 10.5 -18.9°
Reaches altitude 10° 09:58:57 10° 145° (SE) 1,994 10.1 -18.1°
Maximum altitude 10:00:34 12° 124° (ESE) 1,899 10.3 -17.7°
Drops below altitude 10° 10:02:13 10° 103° (ESE) 2,030 10.9 -17.4°
Sets 10:06:07 0° 72° (ENE) 2,976 12.0 -16.6°
